Regional Weather Roundup
Issued by NWS

Home | Current Version | Previous Version | Text Only | Print | Product List | Glossary On
Versions: 1 2 3 4 5 6 7 8 9 10 11 12 13 14 15 16 17 18 19 20 21 22 23 24 25 26 27 28 29 30 31 32 33 34 35 36 37 38 39 40 41 42 43 44 45 46 47 48 49 50
000
ASUS43 KLSX 211807
RWRMO

WEATHER SUMMARY FOR MISSOURI
NATIONAL WEATHER SERVICE SPRINGFIELD MO
100 PM CDT SUN SEP 21 2014

NOTE: "FAIR" INDICATES FEW OR NO CLOUDS BELOW 12,000 FEET WITH NO
       SIGNIFICANT WEATHER AND/OR OBSTRUCTIONS TO VISIBILITY.
       CURRENT SKY AND/OR WEATHER CONDITIONS ARE NOT AVAILABLE FOR
       CHILLICOTHE AND FARMINGTON.

MOZ001>031-035>038-043-044-053-054-211900-
...NORTHERN AND WESTERN MISSOURI...

CITY           SKY/WX    TMP DP  RH WIND       PRES   REMARKS
KANSAS CTY INT MOSUNNY   75  49  39 N17G25    30.18S
6HR MIN TEMP:  56; 6HR MAX TEMP:  75;

KANSAS C DTWN  SUNNY     77  47  34 N16G24    30.16F
6HR MIN TEMP:  58; 6HR MAX TEMP:  77;

LEE`S SUMMIT   SUNNY     75  46  35 NW16G24   30.18S
6HR MIN TEMP:  54; 6HR MAX TEMP:  75;

ST JOSEPH      SUNNY     75  47  36 N16       30.19S
6HR MIN TEMP:  50; 6HR MAX TEMP:  75;

CHILLICOTHE      N/A     73  48  41 NW8G22    30.15S
6HR MIN TEMP:  54; 6HR MAX TEMP:  74;

KIRKSVILLE     MOSUNNY   70  49  47 NW17G24   30.13S
6HR MIN TEMP:  53; 6HR MAX TEMP:  71;


$$
MOZ066>068-077>081-088>096-101>105-211900-
...SOUTHWEST MISSOURI...

CITY           SKY/WX    TMP DP  RH WIND       PRES   REMARKS
SPRINGFIELD    SUNNY     77  45  32 N16       30.15F
6HR MIN TEMP:  68; 6HR MAX TEMP:  77;

JOPLIN         SUNNY     78  47  33 N13       30.17F
6HR MIN TEMP:  67; 6HR MAX TEMP:  78;


$$
MOZ032>034-039>042-045>050-055>058-069>072-211900-
...CENTRAL MISSOURI...

CITY           SKY/WX    TMP DP  RH WIND       PRES   REMARKS
COLUMBIA       SUNNY     75  49  39 NW17G23   30.11F
6HR MIN TEMP:  58; 6HR MAX TEMP:  75;

JEFFERSON CITY SUNNY     76  45  33 NW18      30.10F
6HR MIN TEMP:  61; 6HR MAX TEMP:  78;

ROLLA          SUNNY     75  47  36 NW13G24   30.10F HAZE
6HR MIN TEMP:  61; 6HR MAX TEMP:  75;

SEDALIA        SUNNY     78  45  30 N15G25    30.14S
6HR MIN TEMP:  57; 6HR MAX TEMP:  78;

WHITEMAN AFB   SUNNY     76  47  36 NW16G22   30.14S
OSAGE BEACH    SUNNY     75  46  35 NW7G16    30.13F

$$
MOZ051-052-059>065-211900-
...EAST CENTRAL MISSOURI...

CITY           SKY/WX    TMP DP  RH WIND       PRES   REMARKS
ST LOUIS INTL  MOSUNNY   78  49  35 NW18G24   30.05S
6HR MIN TEMP:  65; 6HR MAX TEMP:  78;

SPIRIT OF STL  SUNNY     77  47  34 NW16G23   30.04F
6HR MIN TEMP:  63; 6HR MAX TEMP:  77;

ST CHARLES     SUNNY     77  50  38 NW14G24   30.04S
6HR MIN TEMP:  63; 6HR MAX TEMP:  77;


$$
MOZ072>076-082>087-097>100-106>115-211900-
...SOUTH CENTRAL AND SOUTHEAST MISSOURI...

CITY           SKY/WX    TMP DP  RH WIND       PRES   REMARKS
CAPE GIRARDEAU SUNNY     80  49  33 NW12G18   30.02F
6HR MIN TEMP:  68; 6HR MAX TEMP:  80;

FARMINGTON     SUNNY     75  45  33 NW10G17   30.09F
6HR MIN TEMP:  70; 6HR MAX TEMP:  75;

POPLAR BLUFF   SUNNY     83  60  45 N10       30.02S
6HR MIN TEMP:  71; 6HR MAX TEMP:  83; 6HR PCP:  0.02;

WEST PLAINS    SUNNY     78  46  32 N9        30.12F
6HR MIN TEMP:  68; 6HR MAX TEMP:  79;


$$


USA.gov is the U.S. government's official web portal to all federal, state and local government web resources and services.